Weather in Mikhaylovka

Russia / Omsk Oblast     56°50′29″N   75°08′45″E
temp.,
°C
wind,
m/s
gust,
m/s
humid.,
%
clouds,
%
prec.,
mm/h
press.,
hPa
HPBL,
m
25 january, tue
tue2500:00−13sw3993100 0.0 1035221
03:00−13sw3989100 0.0 1033232
06:00−14sw3989100 0.0 1032229
09:00−14sw3990100 0.0 1029284
12:00−11sw3791100 0.1 1028355
15:00−11sw3792100 0.0 1026423
18:00−12ssw269698 0.1 1025246
21:00−12ssw2697100 0.1 1024185
26 january, wed
wed2600:00−13sse139874 0.1 102373
03:00−16ese119977 0.1 10239
06:00−19ese1110094 0.1 10249
09:00−22e11100100 0.0 10259
12:00−13ne009573 0.0 102689
15:00−11wsw019185 0.0 1027200
18:00−18sw1110080 0.0 10299
21:00−21ssw1110092 0.0 103010
27 january, thu
thu2700:00−22ssw22100100 0.0 103125
03:00−22ssw23100100 0.0 103142
06:00−22s23100100 0.0 103255
09:00−20s26100100 0.1 103389
12:00−14ssw3596100 0.1 1032183
15:00−12s3593100 0.0 1032280
18:00−16sse2799100 0.0 1033113
21:00−18sse2798100 0.0 1033115
28 january, fri
fri2800:00−18s3897100 0.0 1032129
03:00−19s279992 0.0 1032121
06:00−19s3898100 0.0 1031142
09:00−18s3895100 0.0 1031177
12:00−14s3689100 0.0 1030216
15:00−12s3686100 0.0 1030271
18:00−15sse2794100 0.0 1030142
21:00−17s2795100 0.0 1030109
29 january, sat
sat2900:00−18s2495100 0.0 103075
03:00−19sse249797 0.0 103066
06:00−20sse259884 0.0 103061
09:00−21sse269795 0.0 103181
12:00−15sse2588100 0.0 1031157
15:00−12sse368988 0.0 1030239
18:00−14se3992100 0.0 1030191
21:00−14sse31189100 0.0 1029243